This is the latest recevied weather packets stored in our database for station/object DL5ARK. If no packets are shown the sender has not sent any weather packets the latest 10 day(s).
| Time | Temp. | Humidity | Pressure | Rain* | Wind** | Luminosity | Snow |
|---|---|---|---|---|---|---|---|
| 1777644227 | 22.78° C | 35% | 1014.4 hPa | 0 mm | - | - | - |
| 1777644048 | 22.22° C | 34% | 1014.4 hPa | 0 mm | - | - | - |
| 1777643868 | 22.22° C | 35% | 1014.4 hPa | 0 mm | - | - | - |
| 1777643687 | 22.22° C | 34% | 1014.1 hPa | 0 mm | - | - | - |
| 1777643507 | 22.22° C | 35% | 1014.4 hPa | 0 mm | - | - | - |
| 1777642967 | 22.22° C | 35% | 1014.4 hPa | 0 mm | - | - | - |
| 1777642607 | 21.67° C | 35% | 1014.6 hPa | 0 mm | - | - | - |
| 1777642067 | 21.67° C | 36% | 1014.6 hPa | 0 mm | - | - | - |
| 1777641888 | 21.67° C | 36% | 1014.6 hPa | 0 mm | - | - | - |
| 1777641527 | 21.11° C | 36% | 1014.6 hPa | 0 mm | - | - | - |
| 1777641347 | 21.67° C | 35% | 1014.6 hPa | 0 mm | - | - | - |
| 1777641167 | 21.11° C | 34% | 1014.6 hPa | 0 mm | - | - | - |
| 1777640988 | 21.67° C | 37% | 1014.6 hPa | 0 mm | - | - | - |
| 1777640808 | 21.67° C | 36% | 1014.6 hPa | 0 mm | - | - | - |
| 1777640627 | 21.67° C | 36% | 1014.9 hPa | 0 mm | - | - | - |
| 1777640268 | 21.67° C | 37% | 1014.9 hPa | 0 mm | - | - | - |
| 1777640087 | 21.67° C | 37% | 1015.1 hPa | 0 mm | - | - | - |
| 1777639908 | 21.11° C | 37% | 1015.1 hPa | 0 mm | - | - | - |
| 1777639728 | 21.67° C | 38% | 1014.9 hPa | 0 mm | - | - | - |
| 1777639548 | 21.67° C | 36% | 1015.1 hPa | 0 mm | - | - | - |
| 1777639188 | 21.11° C | 39% | 1015.1 hPa | 0 mm | - | - | - |
| 1777639008 | 21.11° C | 37% | 1015.1 hPa | 0 mm | - | - | - |
| 1777638827 | 20.56° C | 37% | 1015.1 hPa | 0 mm | - | - | - |
| 1777638648 | 20.56° C | 36% | 1015.4 hPa | 0 mm | - | - | - |
| 1777638468 | 21.11° C | 38% | 1015.4 hPa | 0 mm | - | - | - |
* Rain latest hour (hover to see other rain measurements)
** Current wind speed in m/s (hover to see current wind gust speed)